Location: Unspecified
(42.3650°N, 71.1030°W)
Time: 07:38:16
(UTC+00:00)

Hubble Space Telescope - Pass Details

Date: 31 May 2024
Orbit: 510 x 514 km, 28.5° (Epoch: 23 June)

Event Time Altitude Azimuth Distance (km) Brightness Sun altitude
Rises 00:51:59 0° 234° (SW) 2,610 4.5 -6.6°
Reaches altitude 10° 00:55:50 10° 197° (SSW) 1,723 3.1 -7.2°
Maximum altitude 00:56:53 11° 181° (S) 1,666 2.9 -7.4°
Drops below altitude 10° 00:57:57 10° 166° (SSE) 1,722 2.9 -7.5°
Enters shadow 00:59:00 - 152° (SSE) 1,877 3.0 -7.7°
